Alpena, MI

10:47 AM EDT on April 23, 2017 (GMT -0400)
Alpena County Regional

Weather History for KAPN - May, 2013

Change the Weather History Date:

Sunday, May 19, 2013

  Actual Average Record
Temperature  
Mean Temperature 61 °F 53 °F  
Max Temperature 73 °F 66 °F 91 °F (2012)
Min Temperature 49 °F 41 °F 25 °F (1944)
Degree Days  
Heating Degree Days 4 12  
Month to date heating degree days 235 277  
Since 1 July heating degree days 7476 7836  
Cooling Degree Days 0 0  
Month to date cooling degree days 1 0  
Year to date cooling degree days 1 2  
Growing Degree Days 10 (Base 50)    
Moisture  
Dew Point 47 °F    
Average Humidity 67    
Maximum Humidity 89    
Minimum Humidity 44    
Precipitation  
Precipitation 0.00 in 0.09 in 1.03 in (1983)
Month to date precipitation 1.77 1.57  
Year to date precipitation 12.44 8.80  
Sea Level Pressure  
Sea Level Pressure 29.99 in    
Wind  
Wind Speed 5 mph (ESE)    
Max Wind Speed 13 mph    
Max Gust Speed 16 mph    
Visibility 10 miles    
Events      
T = Trace of Precipitation, MM = Missing Value Source: NWS Daily Summary

Daily Weather History Graph

Daily Weather History Graph

Search for Another Location

Airport or City:

Trip Planner

Search our weather history database for the weather conditions in past years. The results will help you decide how hot, cold, wet, or windy it might be!

Date:

Astronomy

May. 19, 2013 Rise Set
Actual Time 6:00 AM EDT 9:01 PM EDT
Civil Twilight 5:25 AM EDT 9:36 PM EDT
Nautical Twilight 4:41 AM EDT 10:21 PM EDT
Astronomical Twilight 3:47 AM EDT 11:15 PM EDT
Moon 2:49 PM EDT (5/19) 2:40 AM EDT (5/19)
Length of Visible Light 16h 11m
Length of Day
15h 01m
Waxing Gibbous, 65% of the Moon is Illuminated
May 19
Waxing Gibbous
May 25
Full
May 31
Last Quarter
Jun 8
New
Jun 16
First Quarter

Hourly Weather History & Observations

Time (EDT) Temp. Dew Point Humidity Pressure Visibility Wind Dir Wind Speed Gust Speed Precip Events Conditions
12:54 AM 50.0 °F 42.1 °F 74% 30.08 in 10.0 mi Calm Calm - N/A   Clear
1:54 AM 48.9 °F 43.0 °F 80% 30.07 in 10.0 mi Calm Calm - N/A   Clear
2:54 AM 50.0 °F 44.1 °F 80% 30.06 in 10.0 mi Calm Calm - N/A   Mostly Cloudy
3:54 AM 51.1 °F 44.1 °F 77% 30.05 in 10.0 mi Calm Calm - N/A   Overcast
4:54 AM 51.1 °F 45.0 °F 80% 30.04 in 10.0 mi SSE 3.5 mph - N/A   Overcast
5:54 AM 52.0 °F 44.1 °F 74% 30.04 in 10.0 mi Calm Calm - N/A   Overcast
6:54 AM 52.0 °F 45.0 °F 77% 30.04 in 10.0 mi Calm Calm - N/A   Clear
7:54 AM 53.1 °F 45.0 °F 74% 30.05 in 10.0 mi SE 3.5 mph - N/A   Mostly Cloudy
8:54 AM 59.0 °F 46.0 °F 62% 30.03 in 10.0 mi SE 4.6 mph - N/A   Overcast
9:54 AM 62.1 °F 48.0 °F 60% 30.02 in 10.0 mi ESE 5.8 mph - N/A   Clear
10:54 AM 69.1 °F 48.9 °F 49% 30.00 in 10.0 mi ESE 4.6 mph - N/A   Clear
11:54 AM 73.0 °F 50.0 °F 44% 29.98 in 10.0 mi East 8.1 mph - N/A   Clear
12:54 PM 72.0 °F 48.9 °F 44% 29.98 in 10.0 mi ESE 9.2 mph - N/A   Clear
1:54 PM 69.1 °F 48.0 °F 47% 29.97 in 10.0 mi East 9.2 mph - N/A   Scattered Clouds
2:54 PM 70.0 °F 48.9 °F 47% 29.97 in 10.0 mi East 6.9 mph - N/A   Scattered Clouds
3:54 PM 71.1 °F 48.9 °F 45% 29.96 in 10.0 mi East 9.2 mph - N/A   Scattered Clouds
4:54 PM 71.1 °F 48.9 °F 45% 29.94 in 10.0 mi East 10.4 mph - N/A   Clear
5:54 PM 70.0 °F 48.9 °F 47% 29.93 in 10.0 mi East 11.5 mph - N/A   Clear
6:54 PM 68.0 °F 48.9 °F 50% 29.91 in 10.0 mi ESE 10.4 mph - N/A   Clear
7:54 PM 64.0 °F 48.0 °F 56% 29.92 in 10.0 mi ESE 8.1 mph - N/A   Clear
8:54 PM 60.1 °F 48.9 °F 67% 29.93 in 10.0 mi East 3.5 mph - N/A   Partly Cloudy
9:54 PM 57.9 °F 48.9 °F 72% 29.94 in 10.0 mi ESE 3.5 mph - N/A   Overcast
10:54 PM 55.0 °F 48.9 °F 80% 29.93 in 8.0 mi ESE 3.5 mph - N/A   Clear
11:54 PM 52.0 °F 48.0 °F 86% 29.94 in 6.0 mi ESE 5.8 mph - N/A   Clear